Location: Antichan
(42.9728°N, 0.6667°E)
Time: 16:45:23
(UTC+00:00)

Lacrosse 4 Rocket - Pass Details

Date: 15 August 2020
Orbit: 544 x 615 km, 68.0° (Epoch: 18 September)

Event Time Altitude Azimuth Distance (km) Brightness Sun altitude
Exits shadow 21:37:36 24° 45° (NE) 1,197 3.0 -24.4°
Drops below altitude 10° 21:39:24 10° 37° (NE) 1,874 4.2 -24.6°
Sets 21:41:37 0° 33° (NNE) 2,763 5.1 -24.9°
